Track STARLINK-3919 now! 10-day predictions STARLINK-3919 is classified as:
1 52580U 22051AW 22180.58334491 -.00846428 00000-0 -53280-1 0 9993 2 52580 53.2173 70.4907 0001500 63.9129 119.6336 15.11364809 1307